This demonstration page uses our WeatherBlox Daily Observations layout. Learn more.

Left ArrowRight Arrow

39.29038, -76.61219

Hourly Observations for January 7, 2015

Temp ( °F °C ) Dew Point ( °F °C ) Humidity (%) Winds ( mph kmh ) Pressure ( in mb ) Visibility ( mi km ) Precip ( " mm )
12:54 am 00:54 undefined 23 -5 15 -9.4 72 72 undefined N/A 30.09 1019 N/A 0.00 0.00
1:54 am 01:54 undefined 23 -5 15 -9.4 72 72 undefined N/A 30.11 1020 N/A 0.00 0.00
2:54 am 02:54 undefined 24 -4.4 14 -10 65 65 undefined N/A 30.01 1016 N/A 0.00 0.00
3:54 am 03:54 undefined 23 -5 15 -9.4 72 72 undefined N/A 30.00 1016 N/A 0.00 0.00
4:54 am 04:54 undefined 22 -5.6 13 -10.6 68 68 undefined N/A 30.08 1019 N/A 0.00 0.00
5:54 am 05:54 undefined 22 -5.6 14 -10 71 71 undefined N/A 30.00 1016 N/A 0.00 0.00
6:54 am 06:54 undefined 25 -3.9 12 -11.1 58 58 undefined N/A 29.99 1016 N/A 0.00 0.00
7:54 am 07:54 undefined 24 -4.4 7 -13.9 48 48 undefined N/A 30.13 1020 N/A 0.00 0.00
8:54 am 08:54 undefined 24 -4.4 6 -14.4 46 46 undefined N/A 30.16 1021 N/A 0.00 0.00
9:54 am 09:54 undefined 24 -4.4 4 -15.6 42 42 undefined N/A 30.08 1019 N/A 0.00 0.00
10:54 am 10:54 undefined 24 -4.4 3 -16.1 40 40 undefined N/A 30.11 1020 N/A 0.00 0.00
11:54 am 11:54 undefined 23 -5 3 -16.1 42 42 undefined N/A 30.13 1020 N/A 0.00 0.00
12:54 pm 12:54 undefined 25 -3.9 0 -17.8 33 33 undefined N/A 30.12 1020 N/A 0.00 0.00
1:54 pm 13:54 undefined 21 -6.1 -2 -18.9 36 36 undefined N/A 30.07 1018 N/A 0.00 0.00
2:54 pm 14:54 undefined 21 -6.1 1 -17.2 41 41 undefined N/A 30.22 1024 N/A 0.00 0.00
3:54 pm 15:54 undefined 21 -6.1 -2 -18.9 36 36 undefined N/A 30.22 1023 N/A 0.00 0.00
4:54 pm 16:54 undefined 20 -6.7 -2 -18.9 38 38 undefined N/A 30.23 1024 N/A 0.00 0.00
5:54 pm 17:54 undefined 20 -6.7 -1 -18.3 40 40 undefined N/A 30.26 1025 N/A 0.00 0.00
6:54 pm 18:54 undefined 19 -7.2 5 -15 54 54 undefined N/A 30.29 1026 N/A 0.00 0.00
7:54 pm 19:54 undefined 17 -8.3 -5 -20.6 37 37 undefined N/A 30.33 1027 N/A 0.00 0.00
8:54 pm 20:54 undefined 17 -8.3 -7 -21.7 33 33 undefined N/A 30.36 1028 N/A 0.00 0.00
9:54 pm 21:54 undefined 16 -8.9 -3 -19.4 43 43 undefined N/A 30.40 1029 N/A 0.00 0.00
10:54 pm 22:54 undefined 14 -10 -1 -18.3 51 51 undefined N/A 30.42 1030 N/A 0.00 0.00
11:54 pm 23:54 undefined 13 -10.6 0 -17.8 56 56 undefined N/A 30.45 1031 N/A 0.00 0.00

Powered by AerisWeather